Location: Wawayanda State Park
(41.1833°N, 74.4333°W)
Time: 02:40:28
(UTC-04:00)

Landsat 7 - Visible Passes

Search period start: 31 March 2015 00:00
Search period end: 10 April 2015 00:00
Orbit: 702 x 703 km, 98.2° (Epoch: 30 March)

Date Brightness Start Highest point End Pass type
(mag) Time Alt. Az. Time Alt. Az. Time Alt. Az.
31 Mar 5.5 22:22:21 26° N 22:22:21 26° N 22:24:31 10° N visible
01 Apr 5.8 21:26:37 16° NE 21:26:37 16° NE 21:28:21 10° NNE visible
01 Apr 6.1 23:05:30 22° NNW 23:05:30 22° NNW 23:07:16 10° NNW visible
02 Apr 5.4 22:09:47 27° NNE 22:09:47 27° NNE 22:12:10 10° N visible
02 Apr 6.8 23:48:40 12° NW 23:48:40 12° NW 23:49:05 10° NW visible
03 Apr 5.9 21:14:04 13° NE 21:14:04 13° NE 21:15:27 10° NNE visible
03 Apr 5.7 22:52:56 27° NNW 22:52:56 27° NNW 22:55:07 10° NNW visible
04 Apr 5.4 21:57:13 25° NNE 21:57:13 25° NNE 21:59:45 10° N visible
04 Apr 6.5 23:36:06 16° NW 23:36:06 16° NW 23:37:15 10° NW visible
05 Apr 5.4 22:40:22 32° N 22:40:22 32° N 22:42:53 10° NNW visible
06 Apr 5.4 21:44:39 22° NE 21:44:39 22° NE 21:47:15 10° NNE visible
06 Apr 6.2 23:23:31 20° NW 23:23:31 20° NW 23:25:18 10° NNW visible
07 Apr 5.1 22:27:48 35° N 22:27:48 35° N 22:30:37 10° N visible
08 Apr 5.5 21:32:03 19° NE 21:32:03 19° NE 21:34:38 10° NNE visible
08 Apr 5.8 23:10:57 26° NW 23:10:57 26° NW 23:13:15 10° NNW visible
09 Apr 4.9 22:15:13 35° NNE 22:15:13 35° NNE 22:18:17 10° N visible
09 Apr 6.6 23:54:05 13° WNW 23:54:05 13° WNW 23:54:50 10° NW visible
